Tucson, AZ

3:53 AM MST on December 13, 2019 (GMT -0700)
Tucson International

Weather History for KTUS - November, 2019

Change the Weather History Date:

Saturday, November 16, 2019

  Actual Average Record
Temperature  
Mean Temperature 70 °F 60 °F  
Max Temperature 84 °F 73 °F 89 °F (1999)
Min Temperature 56 °F 46 °F 26 °F (1909)
Degree Days  
Heating Degree Days 0 6  
Month to date heating degree days 1 65  
Since 1 July heating degree days 28 89  
Cooling Degree Days 5 1  
Month to date cooling degree days 62 25  
Year to date cooling degree days 3358 3144  
Growing Degree Days 22 (Base 50)    
Moisture  
Dew Point 30 °F    
Average Humidity 25    
Maximum Humidity 35    
Minimum Humidity 15    
Precipitation  
Precipitation 0.00 in 0.01 in 1.07 in (1952)
Month to date precipitation 0.09 0.26  
Year to date precipitation 10.19 10.35  
Sea Level Pressure  
Sea Level Pressure 29.92 in    
Wind  
Wind Speed 6 mph (SSE)    
Max Wind Speed 15 mph    
Max Gust Speed 19 mph    
Visibility 10 miles    
Events      
T = Trace of Precipitation, MM = Missing Value Source: NWS Daily Summary

Daily Weather History Graph

Daily Weather History Graph

Search for Another Location

Airport or City:

Astronomy

Nov. 16, 2019 Rise Set
Actual Time 6:53 AM MST 5:23 PM MST
Civil Twilight 6:27 AM MST 5:49 PM MST
Nautical Twilight 5:57 AM MST 6:18 PM MST
Astronomical Twilight 5:28 AM MST 6:47 PM MST
Moon 9:05 PM MST (11/16) 10:44 AM MST (11/16)
Length of Visible Light 11h 21m
Length of Day
10h 29m
Waning Gibbous, 82% of the Moon is Illuminated
Nov 16
Waning Gibbous
Nov 19
Last Quarter
Nov 26
New
Dec 3
First Quarter
Dec 11
Full

Hourly Weather History & Observations

Time (MST) Temp. Dew Point Humidity Pressure Visibility Wind Dir Wind Speed Gust Speed Precip Events Conditions
12:53 AM 62.1 °F 27.0 °F 26% 29.94 in 10.0 mi South 9.2 mph - N/A   Clear
1:53 AM 62.1 °F 27.0 °F 26% 29.94 in 10.0 mi SE 5.8 mph - N/A   Clear
3:53 AM 60.1 °F 28.0 °F 30% 29.93 in 10.0 mi SSW 4.6 mph - N/A   Clear
4:53 AM 61.0 °F 28.0 °F 29% 29.93 in 10.0 mi SE 10.4 mph - N/A   Clear
5:53 AM 61.0 °F 27.0 °F 27% 29.94 in 10.0 mi SE 10.4 mph - N/A   Clear
6:53 AM 60.1 °F 28.0 °F 30% 29.95 in 10.0 mi South 9.2 mph - N/A   Clear
7:53 AM 61.0 °F 30.0 °F 31% 29.96 in 10.0 mi SSE 9.2 mph - N/A   Clear
8:53 AM 66.0 °F 30.9 °F 27% 29.96 in 10.0 mi SSE 11.5 mph - N/A   Clear
9:53 AM 69.1 °F 30.9 °F 24% 29.96 in 10.0 mi SE 9.2 mph - N/A   Clear
10:53 AM 75.0 °F 30.9 °F 20% 29.95 in 10.0 mi Variable 3.5 mph - N/A   Clear
11:53 AM 79.0 °F 32.0 °F 18% 29.92 in 10.0 mi Calm Calm - N/A   Clear
12:53 PM 82.9 °F 34.0 °F 17% 29.88 in 10.0 mi Calm Calm - N/A   Clear
1:53 PM 84.0 °F 34.0 °F 17% 29.86 in 10.0 mi North 5.8 mph - N/A   Clear
2:53 PM 82.9 °F 30.9 °F 15% 29.86 in 10.0 mi NW 6.9 mph 17.3 mph N/A   Clear
3:53 PM 82.0 °F 30.9 °F 16% 29.86 in 10.0 mi North 10.4 mph - N/A   Clear
4:53 PM 80.1 °F 30.0 °F 16% 29.87 in 10.0 mi NNW 8.1 mph - N/A   Clear
5:53 PM 75.0 °F 30.9 °F 20% 29.89 in 10.0 mi NNW 4.6 mph - N/A   Clear
6:53 PM 71.1 °F 30.9 °F 23% 29.91 in 10.0 mi Calm Calm - N/A   Clear
7:53 PM 64.9 °F 30.0 °F 27% 29.94 in 10.0 mi WSW 4.6 mph - N/A   Clear
8:53 PM 64.9 °F 28.9 °F 26% 29.94 in 10.0 mi SW 4.6 mph - N/A   Clear
9:53 PM 62.1 °F 28.9 °F 29% 29.95 in 10.0 mi SSE 6.9 mph - N/A   Clear
10:53 PM 59.0 °F 28.9 °F 32% 29.96 in 10.0 mi SE 5.8 mph - N/A   Clear
11:53 PM 57.0 °F 28.9 °F 34% 29.96 in 10.0 mi SE 4.6 mph - N/A   Clear